Regional Weather Roundup
Issued by NWS

Home | Current Version | Previous Version | Text Only | Print | Product List | Glossary On
Versions: 1 2 3 4 5 6 7 8 9 10 11 12 13 14 15 16 17 18 19 20 21 22 23 24 25 26 27 28 29 30 31 32 33 34 35 36 37 38 39 40 41 42 43 44 45 46 47 48 49 50
000
ASUS43 KFSD 070410
RWRSD

WEATHER ROUNDUP FOR SOUTH DAKOTA
NATIONAL WEATHER SERVICE SIOUX FALLS SD
1000 PM CST SAT FEB 06 2016

NOTE: "FAIR" INDICATES FEW OR NO CLOUDS BELOW 12,000 FEET WITH NO
SIGNIFICANT WEATHER AND/OR OBSTRUCTIONS TO VISIBILITY.


SDZ001>005-009-010-012>017-070500-
NORTHWEST AND NORTH CENTRAL SOUTH DAKOTA

CITY           SKY/WX    TMP DP  RH WIND       PRES   REMARKS
BUFFALO          N/A     38  22  52 W26       29.89R
FAITH            N/A     38  22  52 NW25G32   29.90S
MOBRIDGE       CLEAR     42  26  53 NW21G28   29.77R
$$

SDZ012>016-024>037-041>051-057-063-072>074-070500-
SOUTHWEST AND SOUTH CENTRAL SOUTH DAKOTA

CITY           SKY/WX    TMP DP  RH WIND       PRES   REMARKS
RAPID CTY ARPT MOCLDY    40  19  43 NW25G35   30.00R
PIERRE         PTCLDY    41  26  55 W22       29.86S
CUSTER         CLEAR     32  11  41 NW14G29   29.98R WCI  22
ELLSWORTH AFB  CLEAR     39  20  45 NW24G36   29.99R
PHILIP         CLEAR     40  25  55 NW23G29   29.96R
PINE RIDGE     CLOUDY    34  25  69 W5        30.05R WCI  30
SPEARFISH      FAIR      36  18  48 W18G28    30.04R
WINNER         MOCLDY    41  29  62 W13       29.93R
$$

SDZ004>011-016>023-039-040-070500-
NORTHEAST SOUTH DAKOTA

CITY           SKY/WX    TMP DP  RH WIND       PRES   REMARKS
ABERDEEN       CLEAR     42  25  50 W15       29.73S
WATERTOWN      CLOUDY    38  29  70 SW16      29.73F
BROOKINGS      CLOUDY    36  30  79 SW10      29.78R
SISSETON         N/A     40  31  70 W17G24    29.68F
$$

SDZ017-020-022-023-036>040-048>070-070500-
SOUTHEAST SOUTH DAKOTA

CITY           SKY/WX    TMP DP  RH WIND       PRES   REMARKS
SIOUX FALLS    CLOUDY    33  26  75 W8        29.83F WCI  26
HURON          CLOUDY    39  29  67 W18       29.81R
CHAMBERLAIN    CLOUDY    39  30  68 W12G18    29.89R
MITCHELL       MOCLDY    43  30  60 W17       29.84S
YANKTON        CLOUDY    39  28  65 W17       29.86S
$$

ABBREVIATIONS USED IN REMARKS
   TC - TEMPERATURE IN CELSIUS
  WCI - WIND CHILL INDEX
   HX - HEAT INDEX
  VSB - VISIBILITY




USA.gov is the U.S. government's official web portal to all federal, state and local government web resources and services.